This is the latest recevied weather packets stored in our database for station/object AI5BL. If no packets are shown the sender has not sent any weather packets the latest 10 day(s).
| Time | Temp. | Humidity | Pressure | Rain* | Wind** | Luminosity | Snow |
|---|---|---|---|---|---|---|---|
| 1777693784 | 10.56° C | 99% | 1018 hPa | 3.05 mm | - | 0 W/m² | - |
| 1777693482 | 10.56° C | 99% | 1017.9 hPa | 3.05 mm | - | 0 W/m² | - |
| 1777693180 | 10.56° C | 99% | 1017.7 hPa | 3.05 mm | - | 0 W/m² | - |
| 1777692877 | 10.56° C | 99% | 1017.8 hPa | 1.27 mm | - | 0 W/m² | - |
| 1777692574 | 10.56° C | 99% | 1017.5 hPa | 1.78 mm | - | 0 W/m² | - |
| 1777692271 | 10.56° C | 99% | 1017.3 hPa | 1.78 mm | - | 0 W/m² | - |
| 1777691968 | 10.56° C | 99% | 1017.2 hPa | 4.32 mm | - | 0 W/m² | - |
| 1777691666 | 10.56° C | 99% | 1016.9 hPa | 0 mm | - | 0 W/m² | - |
| 1777691364 | 10.56° C | 99% | 1017.1 hPa | 0 mm | - | 0 W/m² | - |
| 1777691062 | 10.56° C | 99% | 1017.1 hPa | 0 mm | - | 0 W/m² | - |
| 1777690760 | 10.56° C | 99% | 1017.1 hPa | 0 mm | - | 0 W/m² | - |
| 1777690456 | 10.56° C | 99% | 1017 hPa | 0 mm | - | 0 W/m² | - |
| 1777690154 | 10.56° C | 99% | 1016.7 hPa | 0 mm | - | 0 W/m² | - |
| 1777689852 | 10.56° C | 99% | 1016.7 hPa | 0 mm | - | 0 W/m² | - |
| 1777689550 | 10.56° C | 99% | 1016.6 hPa | 1.78 mm | - | 0 W/m² | - |
| 1777689247 | 10.56° C | 99% | 1016.5 hPa | 1.78 mm | - | 0 W/m² | - |
| 1777688945 | 10.56° C | 99% | 1016.3 hPa | 0 mm | - | 0 W/m² | - |
| 1777688641 | 10.56° C | 99% | 1016.4 hPa | 0 mm | - | 0 W/m² | - |
| 1777688338 | 10.56° C | 99% | 1016.2 hPa | 1.27 mm | - | 0 W/m² | - |
| 1777688035 | 10.56° C | 99% | 1015.9 hPa | 1.27 mm | - | 0 W/m² | - |
| 1777687733 | 10.56° C | 99% | 1016 hPa | 1.78 mm | - | 0 W/m² | - |
| 1777687430 | 10.56° C | 99% | 1016.2 hPa | 1.78 mm | - | 0 W/m² | - |
| 1777687127 | 10.56° C | 99% | 1016.4 hPa | 1.78 mm | - | 0 W/m² | - |
| 1777686824 | 10.56° C | 99% | 1016.3 hPa | 4.83 mm | - | 0 W/m² | - |
| 1777686521 | 10.56° C | 99% | 1016.2 hPa | 1.78 mm | - | 0 W/m² | - |
* Rain latest hour (hover to see other rain measurements)
** Current wind speed in m/s (hover to see current wind gust speed)